Skip Page Navigation
NASA JPL Caltech
NASA Logo - Jet Propulsion Laboratory + View the NASA Portal
+ Center for Near-Earth Object Studies
JPL Home Earth Solar System Stars & Galaxies Technology
JPL Solar System Dynamics
BODIES ORBITS EPHEMERIDES TOOLS PHYSICAL DATA DISCOVERY FAQ SITE MAP
JPL Small-Body Database Browser
Search: [ help ]  
15481 (1999 CK19)
Classification: Main-belt Asteroid          SPK-ID: 2015481
Ephemeris | Orbit Diagram | Orbital Elements | Mission Design | Physical Parameters | Discovery Circumstances ]

[ hide orbit diagram ]

For accurate long-term ephemerides, please instead use our Horizons system.This orbit viewer was implemented using two-body methods, and hence should not be used for determining accurate long-term trajectories (over several years or decades) or planetary encounter circumstances.


[ revert to old Java-based viewer ]

Orbital Elements at Epoch 2459000.5 (2020-May-31.0) TDB
Reference: JPL 35 (heliocentric ecliptic J2000)
 Element Value Uncertainty (1-sigma)   Units 
e .136308155545795 3.933e-08  
a 2.382769617247492 9.138e-09 au
q 2.057978685629927 9.327e-08 au
i 4.115915908035741 4.4838e-06 deg
node 331.0482534870248 5.2313e-05 deg
peri 344.3451322118598 5.4736e-05 deg
M 98.21263360915319 1.4847e-05 deg
tp 2458633.989548400458
(2019-May-30.48954840)
5.579e-05 TDB
period 1343.449999527741
3.68
7.7283e-06
2.116e-08
d
yr
n .2679668019848522 1.5415e-09 deg/d
Q 2.707560548865058 1.0384e-08 au
  Orbit Determination Parameters
   # obs. used (total)      1776  
   data-arc span      26004 days (71.20 yr)  
   first obs. used      1949-08-21  
   last obs. used      2020-10-31  
   planetary ephem.      DE431  
   SB-pert. ephem.      SB431-N16  
   condition code      0  
   norm. resid. RMS      .49468  
   source      ORB  
   producer      Otto Matic  
   solution date      2020-Nov-13 02:33:22  

Additional Information
 Earth MOID = 1.04471 au 
 Jupiter MOID = 2.55638 au 
 T_jup = 3.521 
[ show covariance matrix ]

Ephemeris | Orbit Diagram | Orbital Elements | Mission Design | Physical Parameters | Discovery Circumstances ]

Physical Parameter Table
Parameter Symbol Value Units Sigma Reference Notes
absolute magnitude H 14.0   n/a MPO449063  
diameter diameter 4.664 km 0.498 urn:nasa:pds:neowise_diameters_albedos::2.0[mainbelt] (http://adsabs.harvard.edu/abs/2011ApJ...741...68M)  
rotation period rot_per 5.010 h n/a LCDB (Rev. 2019-August); Warner et al., 2009 Result based on less than full coverage, so that the period may be wrong by 30 percent or so.
Published Reference List:
[Chang, C.K.; Ip, W.-H.; Lin, H.-W.; Cheng, Y.C.; et al. (2015) Astrophys. J. Supp. Ser. 219, A27.]
[Waszczak, A.; Chang, C.-K.; Ofeck, E.O.; Laher, F.; et al. (2015) Astron. J. 150, A75.]
geometric albedo albedo 0.269   0.098 urn:nasa:pds:neowise_diameters_albedos::2.0[mainbelt] (http://adsabs.harvard.edu/abs/2011ApJ...741...68M)  

15481 (1999 CK19)          Discovered 1999-Feb-10 by LINEAR at Socorro
Reference: 20000621/Numbers.arcLast Updated: 2004-04-19

Alternate Designations
 1999 CK19 = 1949 QQ2 = 1974 HK2 = 1986 RR10 = 1992 EP32 
Ephemeris | Orbit Diagram | Orbital Elements | Mission Design | Physical Parameters | Discovery Circumstances ]
ABOUT SSD CREDITS/AWARDS PRIVACY/COPYRIGHT GLOSSARY LINKS
FirstGov 2020-Dec-01 19:23 UT
(server date/time)  
NASA Home Page
Site Manager:   Ryan S. Park
Webmaster  Alan B. Chamberlin